Location: Julian California
(33.0790°N, 116.6010°W)
Time: 14:21:06
(UTC-08:00)

Cosmos 841 Rocket - Pass Details

Date: 12 July 2018
Orbit: 746 x 773 km, 74.0° (Epoch: 16 November)

Event Time Altitude Azimuth Distance (km) Brightness Sun altitude
Rises 22:53:36 0° 342° (NNW) 3,199 7.9 -28.2°
Reaches altitude 10° 22:55:58 10° 342° (NNW) 2,268 6.8 -28.5°
Enters shadow 23:00:22 66° 335° (NNW) 813 3.7 -29.0°
